Weather Roundup
Issued by NWS Springfield, MO

Home | Current Version | Previous Version | Text Only | Print | Product List | Glossary On
Versions: 1 2 3 4 5 6 7 8 9 10 11 12 13 14 15 16 17 18 19 20 21 22 23 24 25 26 27 28 29 30 31 32 33 34 35 36 37 38 39 40 41 42 43 44 45 46 47 48 49 50
000
NZUS99 KSGF 231207
HRRSGF

HOURLY WEATHER
NATIONAL WEATHER SERVICE SPRINGFIELD MO
600 AM CST THU FEB 23 2017

......SGF CWA......

CITY           SKY/WX    TMP DP  RH WIND       PRES   REMARKS
SPRINGFIELD    FOG       53  53 100 SE16      29.67F VSB 1
6HR MIN TEMP:  53; 6HR MAX TEMP:  57;

JOPLIN         CLEAR     56  53  90 S8        29.64S
6HR MIN TEMP:  56; 6HR MAX TEMP:  60;

WEST PLAINS    FOG       52  52 100 S5        29.75S VSB 1/4
6HR MIN TEMP:  51; 6HR MAX TEMP:  53;

ROLLA          FOG       51  51 100 CALM      29.70R VSB 1/4
6HR MIN TEMP:  51; 6HR MAX TEMP:  55;

OSAGE BEACH    LGT RAIN  53  53 100 E3        29.69F VSB 1/4
BRANSON        LGT RAIN  50  50 100 SE6       29.72S VSB<1/4

......SURROUNDING SGF CWA......

CITY           SKY/WX    TMP DP  RH WIND       PRES   REMARKS
CHANUTE        PTCLDY    51  48  89 E7        29.61F
PARSONS        PTCLDY    53  50  89 VRB3      29.60F
COFFEYVILLE    CLEAR     51  49  92 E6        29.60F
EMPORIA        PTCLDY    51  39  63 NE15      29.63F
GROVE OK       PTCLDY    54  52  94 CALM      29.65S
ROGERS AR      MOCLDY    54  52  93 SE10      29.68F
SILOAM SPRINGS MOCLDY    55  50  82 SE9       29.65F
HARRISON AR    PTCLDY    51  51 100 SE7       29.71S
NEAR YELLVILLE CLOUDY    50  46  87 CALM      29.72R VSB 1/4

......KANSAS AND MISSOURI......

CITY           SKY/WX    TMP DP  RH WIND       PRES   REMARKS
KANSAS CTY INT CLOUDY    49  41  74 NE7       29.74R
DOWNTOWN KC    CLOUDY    53  41  63 NE8       29.73R
COLUMBIA       CLOUDY    52  52 100 NE9       29.69F FOG
SEDALIA        CLOUDY    50  48  93 E5        29.70R
ST JOSEPH      CLOUDY    48  40  73 NE8       29.75R
ST LOUIS       MOCLDY    51  49  92 CALM      29.72F
SPIRIT OF STL  FOG       46  46 100 CALM      29.71S VSB 1/4
KIRKSVILLE     MOCLDY    42  38  85 N10       29.74R
WICHITA        PTCLDY    49  42  77 NE12      29.58S
TOPEKA         CLOUDY    52  39  61 NE10      29.70F
OLATHE         CLOUDY    51  42  71 NE15      29.71R

......TENNESSEE......

CITY           SKY/WX    TMP DP  RH WIND       PRES   REMARKS
MEMPHIS        CLEAR     54  53  97 S5        29.80R
NASHVILLE      CLEAR     53  50  89 CALM      29.86R

......ARKANSAS.......

CITY           SKY/WX    TMP DP  RH WIND       PRES   REMARKS
FAYETTEVILLE   CLOUDY    50  50 100 SE3       29.68F
FT SMITH       CLOUDY    54  52  93 E8        29.69S
LITTLE ROCK    FOG       49  49 100 CALM      29.77R VSB 1/16

......OKLAHOMA.......

CITY           SKY/WX    TMP DP  RH WIND       PRES   REMARKS
TULSA          MOCLDY    58  54  86 SE12      29.57F
PONCA CITY     CLEAR     50  42  74 SE9       29.54F
MCALESTER      PTCLDY    63  49  60 SE6       29.63F
OKLAHOMA CITY  CLOUDY    52  46  80 S9        29.56F

......IOWA............

CITY           SKY/WX    TMP DP  RH WIND       PRES   REMARKS
DES MOINES     CLOUDY    40  36  86 NE16      29.80F WCI  31
QUAD CITIES    CLOUDY    45  41  86 N14G21    29.75R

......ILLINOIS........

CITY           SKY/WX    TMP DP  RH WIND       PRES   REMARKS
QUINCY         CLOUDY    44  41  89 NE9       29.71F
CHICAGO        CLEAR     49  42  77 NW7       29.72R




USA.gov is the U.S. government's official web portal to all federal, state and local government web resources and services.